Regional Weather Roundup
Issued by NWS

Home | Current Version | Previous Version | Graphics & Text | Print | Product List | Glossary On
Versions: 1 2 3 4 5 6 7 8 9 10 11 12 13 14 15 16 17 18 19 20 21 22 23 24 25 26 27 28 29 30 31 32 33 34 35 36 37 38 39 40 41 42 43 44 45 46 47 48 49 50
000
ASUS43 KFSD 061802
RWRSD

WEATHER ROUNDUP FOR SOUTH DAKOTA
NATIONAL WEATHER SERVICE SIOUX FALLS SD
1200 PM CST SAT FEB 06 2016

NOTE: "FAIR" INDICATES FEW OR NO CLOUDS BELOW 12,000 FEET WITH NO
SIGNIFICANT WEATHER AND/OR OBSTRUCTIONS TO VISIBILITY.


SDZ001>005-009-010-012>017-061900-
NORTHWEST AND NORTH CENTRAL SOUTH DAKOTA

CITY           SKY/WX    TMP DP  RH WIND       PRES   REMARKS
BUFFALO          N/A     44  23  43 W21       29.80F
FAITH            N/A     42  24  49 SW16      29.87F
MOBRIDGE       MOSUNNY   47  27  45 SW10      29.82F
$$

SDZ012>016-024>037-041>051-057-063-072>074-061900-
SOUTHWEST AND SOUTH CENTRAL SOUTH DAKOTA

CITY           SKY/WX    TMP DP  RH WIND       PRES   REMARKS
RAPID CTY ARPT CLOUDY    42  29  59 SE6       29.92F
PIERRE         CLOUDY    43  24  47 SW13      29.91F
CUSTER         CLOUDY    34  17  50 W16G36    29.98F WCI  24
ELLSWORTH AFB  CLOUDY    42  28  57 SW6       29.91F
PHILIP         CLOUDY    43  27  53 SW20      29.93F
PINE RIDGE     CLOUDY    39  23  52 W20G25    30.04F
WINNER         FAIR      43  26  51 SW13      29.97F
$$

SDZ004>011-016>023-039-040-061900-
NORTHEAST SOUTH DAKOTA

CITY           SKY/WX    TMP DP  RH WIND       PRES   REMARKS
ABERDEEN       MOSUNNY   43  28  55 SW18      29.87F
WATERTOWN      CLOUDY    33  24  69 S13       29.90F WCI  24
BROOKINGS      MOSUNNY   35  25  66 S9        29.96F WCI  28
SISSETON         N/A     38  25  59 SW22      29.82F
$$

SDZ017-020-022-023-036>040-048>070-061900-
SOUTHEAST SOUTH DAKOTA

CITY           SKY/WX    TMP DP  RH WIND       PRES   REMARKS
SIOUX FALLS    CLOUDY    29  22  75 SW10      30.03F WCI  20
HURON          MOSUNNY   35  27  72 S13       29.94F WCI  26
CHAMBERLAIN    MOSUNNY   38  28  68 SW8       29.97F
MITCHELL       CLOUDY    35  27  72 S12       29.99F WCI  27
YANKTON        MOSUNNY   36  21  55 SW12      30.05F
$$

ABBREVIATIONS USED IN REMARKS
   TC - TEMPERATURE IN CELSIUS
  WCI - WIND CHILL INDEX
   HX - HEAT INDEX
  VSB - VISIBILITY




USA.gov is the U.S. government's official web portal to all federal, state and local government web resources and services.